Location: Yucca Valley
(34.1140°N, 116.4310°W)
Time: 04:07:20
(UTC-07:00)

Daily predictions for brighter satellites

Satellite Brightness Start Highest point End
(mag) Time Altitude Azimuth Time Altitude Azimuth Time Altitude Azimuth
Cosmos 2360 Rocket 3.1 00:11:11 10° NNW 00:15:18 45° NNE 00:15:18 45° NNE
COSMOS 2428 4.0 00:23:01 10° N 00:27:34 33° NE 00:27:34 33° NE
Cosmos 2322 Rocket 3.8 00:25:16 10° NW 00:28:22 27° WNW 00:28:22 27° WNW
Lacrosse 5 4.4 00:30:11 12° WNW 00:32:52 17° NW 00:36:06 10° N
CZ-2C R/B 3.7 00:34:47 10° N 00:38:53 41° NW 00:38:53 41° NW
SeaSat 1 3.9 00:47:03 34° NNW 00:47:03 34° NNW 00:49:50 10° NNW
Lacrosse 5 rocket 4.3 00:41:02 10° NW 00:41:40 14° NW 00:41:40 14° NW
Cosmos 1802 Rocket 4.5 00:41:40 10° N 00:46:42 54° NNE 00:46:42 54° NNE
Cosmos 2100 Rocket 4.4 00:42:50 10° N 00:47:44 59° N 00:47:44 59° N
Cosmos 2297 Rocket 4.1 00:57:56 20° ENE 00:57:56 20° ENE 01:00:20 10° NE
USA 267 4.2 00:52:00 10° NNE 00:58:03 42° NW 00:59:58 34° WNW
Cosmos 2219 Rocket 3.5 00:53:19 10° N 00:58:04 34° NE 00:58:04 34° NE
Cosmos 2333 Rocket 3.7 00:55:01 10° N 00:59:54 28° ENE 01:00:01 28° ENE
Cosmos 2123 Rocket 4.4 01:11:27 59° NNE 01:11:27 59° NNE 01:16:28 10° N
Cosmos 2061 Rocket 4.5 01:08:26 10° NNW 01:13:19 54° NW 01:13:19 54° NW
Cosmos 2237 Rocket 3.6 01:16:28 10° N 01:21:20 29° ENE 01:21:50 29° ENE
USA 234 4.3 01:24:14 13° ESE 01:29:37 42° NE 01:35:41 10° NNW
Cosmos 2227 Rocket 2.9 01:35:24 49° NE 01:35:24 49° NE 01:39:35 10° NNE
Cosmos 1140 Rocket 4.4 01:42:19 45° NNE 01:42:19 45° NNE 01:45:55 10° NNE
Cosmos 1725 Rocket 4.2 01:35:29 10° N 01:40:51 65° NNW 01:40:51 65° NNW
ATLAS 2AS CENTAUR R/B 2.7 01:41:46 10° NNW 01:49:44 87° WSW 01:49:53 86° SSW
DELTA 2 R/B (1) 4.2 01:56:33 53° NE 01:56:33 53° NE 02:00:59 10° ENE
Cosmos 2082 4.0 02:07:51 60° NNW 02:07:51 60° NNW 02:12:37 10° NNE
CZ-3B DEB 4.2 02:04:02 51° SSW 02:08:35 80° SE 02:23:09 10° NE
Cosmos 1741 Rocket 4.4 02:13:21 62° NNE 02:13:21 62° NNE 02:17:47 10° NNE
IRS-P3 4.3 02:16:19 10° NNE 02:21:12 69° ENE 02:21:12 69° ENE
SL-08 R/B 4.0 02:26:31 52° E 02:26:40 53° ENE 02:31:29 10° N
CBERS-1 4.1 02:27:00 10° NNE 02:31:45 73° ENE 02:31:45 73° ENE
AQUA 4.2 02:28:20 10° NNE 02:32:28 61° NE 02:32:28 61° NE
Cosmos 1570 Rocket 4.1 02:29:56 10° NNW 02:35:18 75° ENE 02:35:20 75° ENE
VEP-3 4.1 02:15:34 10° W 02:38:54 27° SSE 02:41:28 10° SE
ARIANE 5 R/B 3.6 02:33:31 10° NNE 02:38:07 35° E 02:38:45 33° ESE
Cosmos 2297 Rocket 3.0 02:39:44 39° WNW 02:39:44 39° WNW 02:44:58 10° N
Cosmos 2219 Rocket 3.9 02:37:28 10° NW 02:39:45 20° WNW 02:39:45 20° WNW
ADEOS 4.5 02:37:24 10° NNE 02:42:17 39° E 02:43:10 36° ESE
Meteor 1-27 4.3 02:36:33 10° NNW 02:42:05 65° W 02:42:05 65° W
Cosmos 2333 Rocket 3.6 02:39:03 10° NW 02:41:58 26° WNW 02:41:58 26° WNW
Lacrosse 4 Rocket 2.1 02:49:19 49° N 02:49:19 49° N 02:52:30 10° NNE
SL-16 R/B 3.1 02:45:50 24° SE 02:49:27 54° ENE 02:55:26 10° N
NPP 3.7 02:45:00 10° N 02:50:19 64° WNW 02:50:23 64° WNW
Cosmos 1707 Rocket 4.0 02:47:40 10° N 02:51:59 55° E 02:52:05 55° E
Resurs 1-4 Rocket 2.4 02:49:56 10° NNE 02:55:12 60° ESE 02:56:09 51° SE
ATLAS 5 CENTAUR R/B 3.3 02:54:45 24° ESE 02:55:12 24° ESE 02:59:03 10° ENE
ATLAS 3B CENTAUR R/B 3.8 02:36:04 10° W 02:57:15 63° SSW 03:04:29 10° ESE
Cosmos 2034 Rocket 4.0 02:55:35 10° N 03:01:59 88° E 03:04:08 45° S
Cosmos 1666 Rocket 3.5 03:02:48 81° N 03:02:48 81° N 03:07:02 10° N
CZ-3A R/B 3.4 03:03:52 34° SSE 03:04:12 34° SSE 03:18:27 10° E
Cosmos 2237 Rocket 3.4 03:00:23 10° NW 03:03:36 27° WNW 03:03:36 27° WNW
SL-16 R/B 2.0 03:03:11 10° NNW 03:08:52 80° WSW 03:10:22 51° S
CBERS 1 LM4 rocket 4.5 03:04:57 10° NNE 03:10:22 90° W 03:11:22 60° SSW
UNKNOWN OBJECT B 4.1 03:08:13 10° NNE 03:11:50 33° E 03:12:32 31° ESE
ADEOS Rocket 3.5 03:04:28 10° N 03:12:08 80° WNW 03:15:25 39° SSW
USA 234 3.3 03:11:27 46° SSW 03:12:28 50° SW 03:18:47 10° NW
Cosmos 468 Rocket 4.1 03:09:12 10° NNW 03:14:22 70° ENE 03:17:05 28° SSE
Cosmos 2227 4.2 03:13:16 53° SSW 03:14:42 85° ESE 03:20:29 10° NNE
Abrixas rocket 4.4 03:17:03 20° ESE 03:17:03 20° ESE 03:18:42 10° E
Cosmos 2227 Rocket 4.2 03:17:12 14° WNW 03:18:31 15° NW 03:21:36 10° NNW
Cosmos 1805 Rocket 4.5 03:19:16 35° WNW 03:19:16 35° WNW 03:22:50 10° NNW
OAO 3 Rocket 3.2 03:19:04 64° S 03:19:24 66° SSE 03:24:19 10° E
Tsikada Rocket 4.0 03:17:30 46° SSW 03:19:29 73° W 03:25:55 10° N
Spot 4 Rocket 4.0 03:16:44 10° N 03:21:50 66° WNW 03:22:49 53° SW
CZ-2D R/B 2.0 03:18:47 10° N 03:24:00 73° WNW 03:25:19 50° SW
UNK 3.6 03:23:28 59° S 03:24:17 78° W 03:28:54 10° NNW
BREEZE-M R/B 3.9 03:23:05 36° WSW 03:26:25 80° NW 03:30:50 10° NE
CZ-2D R/B 4.1 03:26:40 10° NNE 03:30:41 51° E 03:32:07 34° SSE
Cosmos 1763 Rocket 4.2 03:26:22 10° N 03:31:27 52° ENE 03:36:26 10° SSE
MOS 1 Rocket 4.1 03:26:31 10° NNE 03:31:44 58° E 03:34:51 25° S
Cosmos 2263 Rocket 3.3 03:30:18 19° SSE 03:33:40 38° ESE 03:38:45 10° NE
IRS-1D 3.8 03:31:24 10° N 03:36:34 53° WNW 03:38:02 40° WSW
Cosmos 1455 4.2 03:33:37 10° NW 03:35:09 18° WNW 03:35:09 18° WNW
Atlas Centaur 2 4.3 03:35:34 20° S 03:38:39 25° SSE 03:45:11 10° E
Meteosat 1 Rocket2 3.7 03:38:36 39° S 03:38:45 39° S 03:42:35 10° ESE
Sich 1 4.0 03:41:22 30° W 03:41:26 30° WNW 03:45:18 10° NNW
Cosmos 1814 Rocket 4.0 03:36:04 10° NNW 03:41:27 89° ENE 03:46:35 11° SSE
NOSS 3-4 (A) 3.8 03:34:23 10° NW 03:41:33 76° WSW 03:49:10 10° SSE
NOSS 3-4 (C) 3.8 03:34:29 10° NW 03:41:40 77° WSW 03:49:16 10° SSE
Cosmos 1503 Rocket 4.4 03:39:18 26° S 03:42:11 58° ESE 03:47:21 10° NNE
DELTA 2 R/B (1) 4.4 03:37:18 12° WNW 03:42:22 48° N 03:47:43 10° ENE
MOZ.5/SAFIR/RUBIN 5/SL-8 4.1 03:38:42 12° SSE 03:42:59 66° ENE 03:47:44 10° N
Cosmos 1633 Rocket 3.8 03:44:27 33° W 03:44:43 34° W 03:48:42 10° NNW
Cosmos 1470 Rocket 3.4 03:46:10 44° SSW 03:47:23 69° W 03:51:43 10° N
In-Cosmos 22 Rocket 4.1 03:45:36 25° S 03:48:44 80° E 03:54:03 10° N
Cosmos 220 Rocket 4.3 03:50:18 40° WSW 03:51:30 53° WNW 03:55:53 10° N
CZ-3 R/B 4.1 02:56:22 10° W 03:52:58 72° SSW 04:04:16 10° ESE
Okean O Rocket 3.6 03:51:48 10° NE 03:55:23 25° E 03:58:56 10° SSE
SEDSat Delta rocket 4.4 03:53:43 29° SSW 03:56:22 43° SSE 04:02:38 10° E
GP-B 4.1 03:53:31 10° NNE 03:57:47 45° E 04:02:02 10° SSE
SL-24 R/B 3.9 03:54:48 10° NNE 03:58:29 67° E 04:00:26 26° S
Cosmos 1933 3.2 03:57:04 10° N 04:01:11 79° W 04:03:54 21° S
Cosmos 2285 Rocket 4.3 03:56:15 10° NNW 04:02:33 70° ENE 04:08:50 10° SSE
Cosmos 1634 Rocket 3.9 03:59:21 10° N 04:05:31 74° W 04:11:38 10° S
Cosmos 1400 Rocket 2.7 04:04:18 32° SSW 04:05:56 65° W 04:09:53 10° N
Cosmos 1354 Rocket 4.0 04:05:40 24° SSW 04:08:56 76° WNW 04:14:14 10° NNE
Cosmos 371 Rocket 3.4 04:08:08 10° NNW 04:12:48 52° WSW 04:17:26 10° S
Cosmos 2084 4.3 04:11:37 16° S 04:14:27 40° ESE 04:18:07 10° NE
ARIANE 5 R/B 3.9 04:13:08 10° NNW 04:16:58 22° WNW 04:19:05 17° W
USA 161 0.9 04:19:13 47° NW 04:19:13 47° NW 04:20:49 10° NNW
Meteor 1-26 Rocket 4.2 04:19:08 10° N 04:24:50 81° W 04:30:24 10° S
Cosmos 1603 4.0 04:26:41 10° NW 04:32:02 43° WSW 04:37:20 10° S
SL-16 R/B 3.8 04:30:56 16° WSW 04:33:19 19° W 04:37:37 10° NW
Cosmos 968 Rocket 4.2 04:29:12 10° S 04:34:10 53° ESE 04:39:14 10° NNE
Resurs 1-4 Rocket 4.0 04:31:34 10° NNW 04:34:27 15° WNW 04:37:14 10° W
ADEOS II 2.1 04:32:11 10° NNE 04:37:28 87° ESE 04:42:44 10° SSW
ATLAS 5 CENTAUR R/B 2.9 04:36:18 14° WSW 04:39:38 31° NW 04:44:04 10° NNE
Cosmos 304 Rocket 3.8 04:36:05 10° NNW 04:40:55 86° ENE 04:45:41 10° SSE
RESURS DK-1 2.6 04:38:25 10° NNW 04:42:35 77° ENE 04:46:43 10° SSE
Cosmos 1867 4.4 04:41:11 13° WSW 04:45:29 37° NW 04:50:32 10° NNE
Cosmos 841 Rocket 4.1 04:40:55 10° NW 04:45:42 36° W 04:50:27 10° SSW
PSLV R/B 4.0 04:43:23 10° N 04:47:14 53° WNW 04:50:59 10° SSW
Cosmos 2221 Rocket 3.7 04:43:22 10° N 04:47:56 87° E 04:52:25 10° S
Abrixas rocket 3.5 04:49:42 10° W 04:52:40 32° NNW 04:55:41 10° NE
IRS-1C Rocket 4.1 04:47:26 10° NNE 04:52:45 90° W 04:58:01 10° SSW
CZ-4B R/B 3.2 04:51:01 10° NNE 04:56:23 85° WNW 05:01:48 10° SSW
CZ-4B R/B 3.3 04:54:42 10° N 04:58:51 50° WNW 05:02:48 10° SSW
BREEZE-M DEB (TANK) 3.9 04:58:27 10° S 05:00:35 24° ESE 05:04:42 10° ENE
OAO 3 Rocket 3.4 04:58:00 10° W 05:02:59 80° N 05:07:56 10° E
Cosmos 1315 Rocket 4.1 05:00:57 10° SW 05:04:14 24° WNW 05:07:31 10° NNW
Centaur D AC-25 4.1 04:43:45 10° WSW 05:04:16 52° S 05:09:07 10° ESE
